Time,TemperatureF,DewpointF,PressureIn,WindDirection,WindDirectionDegrees,WindSpeedMPH,WindSpeedGustMPH,Humidity,HourlyPrecipIn,Conditions,Clouds,dailyrainin,SoftwareType,DateUTC
2013-02-10 00:02:00,29.5,26.6,29.91,NNW,338,0.0,0.0,89,0.00,OVC,SKC,0.00,WeatherDisplay:10.37,2013-02-09 23:02:00,
2013-02-10 00:07:00,29.5,26.6,29.91,NNW,338,0.0,0.0,89,0.00,OVC,SKC,0.00,WeatherDisplay:10.37,2013-02-09 23:07:00,
2013-02-10 00:12:00,29.7,26.8,29.91,NW,315,0.0,0.0,89,0.00,OVC,SKC,0.00,WeatherDisplay:10.37,2013-02-09 23:12:00,
2013-02-10 00:17:00,29.7,26.8,29.91,North,0,0.0,0.0,89,0.00,-SN,SKC,0.00,WeatherDisplay:10.37,2013-02-09 23:17:00,
2013-02-10 00:22:00,29.5,26.6,29.91,NW,315,0.4,1.1,89,0.00,-SN,SKC,0.00,WeatherDisplay:10.37,2013-02-09 23:22:00,
2013-02-10 00:27:00,29.7,26.8,29.90,NNW,338,0.0,0.0,89,0.00,-SN,SKC,0.00,WeatherDisplay:10.37,2013-02-09 23:27:00,
2013-02-10 00:32:00,29.7,26.8,29.90,North,0,0.7,1.1,89,0.00,-SN,SKC,0.00,WeatherDisplay:10.37,2013-02-09 23:32:00,
2013-02-10 00:37:00,29.7,26.8,29.90,North,0,0.0,0.0,89,0.00,-SN,SKC,0.00,WeatherDisplay:10.37,2013-02-09 23:37:00,
2013-02-10 00:42:00,29.7,26.5,29.90,NNW,338,0.0,0.0,88,0.00,-SN,SKC,0.00,WeatherDisplay:10.37,2013-02-09 23:42:00,
2013-02-10 00:47:00,29.7,26.5,29.90,NNW,347,0.0,0.0,88,0.00,-SN,SKC,0.00,WeatherDisplay:10.37,2013-02-09 23:47:00,
2013-02-10 00:52:00,29.7,26.5,29.90,North,0,0.0,0.0,88,0.00,-SN,SKC,0.00,WeatherDisplay:10.37,2013-02-09 23:52:00,
2013-02-10 00:57:00,29.7,26.5,29.90,NNW,338,0.0,0.0,88,0.00,-SN,SKC,0.00,WeatherDisplay:10.37,2013-02-09 23:57:00,
2013-02-10 01:02:00,29.7,26.5,29.90,NNW,338,0.5,1.1,88,0.00,-SN,SKC,0.00,WeatherDisplay:10.37,2013-02-10 00:02:00,
2013-02-10 01:07:00,29.7,26.5,29.91,NNW,338,0.0,0.0,88,0.00,-SN,SKC,0.00,WeatherDisplay:10.37,2013-02-10 00:07:00,
2013-02-10 01:12:00,29.7,26.5,29.90,NNW,334,0.0,0.0,88,0.00,-SN,SKC,0.00,WeatherDisplay:10.37,2013-02-10 00:12:00,
2013-02-10 01:17:00,29.7,26.5,29.90,North,0,0.0,0.0,88,0.00,OVC,SKC,0.00,WeatherDisplay:10.37,2013-02-10 00:17:00,
2013-02-10 01:22:00,29.7,26.5,29.91,North,0,0.0,0.0,88,0.00,OVC,SKC,0.00,WeatherDisplay:10.37,2013-02-10 00:22:00,
2013-02-10 01:27:00,29.7,26.5,29.90,North,354,0.0,0.0,88,0.00,OVC,SKC,0.00,WeatherDisplay:10.37,2013-02-10 00:27:00,
2013-02-10 01:32:00,29.7,26.5,29.91,NNW,337,1.0,0.0,88,0.00,OVC,SKC,0.00,WeatherDisplay:10.37,2013-02-10 00:32:00,
2013-02-10 01:37:00,29.7,26.5,29.91,NNW,331,0.0,0.0,88,0.00,OVC,SKC,0.00,WeatherDisplay:10.37,2013-02-10 00:37:00,
2013-02-10 01:42:00,29.5,26.4,29.90,NW,315,0.0,0.0,88,0.00,OVC,SKC,0.00,WeatherDisplay:10.37,2013-02-10 00:42:00,
2013-02-10 01:47:00,29.5,26.4,29.91,NNW,338,0.9,1.1,88,0.00,BKN,SKC,0.00,WeatherDisplay:10.37,2013-02-10 00:47:00,
2013-02-10 01:52:00,29.5,26.1,29.91,North,0,1.0,1.1,87,0.00,BKN,SKC,0.00,WeatherDisplay:10.37,2013-02-10 00:52:00,
2013-02-10 01:57:00,29.5,26.1,29.90,North,0,0.0,0.0,87,0.00,BKN,SKC,0.00,WeatherDisplay:10.37,2013-02-10 00:57:00,
2013-02-10 02:02:00,29.5,26.1,29.90,North,0,0.0,0.0,87,0.00,BKN,SKC,0.00,WeatherDisplay:10.37,2013-02-10 01:02:00,
2013-02-10 02:07:00,29.5,26.1,29.90,North,0,0.0,0.0,87,0.00,BKN,SKC,0.00,WeatherDisplay:10.37,2013-02-10 01:07:00,
2013-02-10 02:12:00,29.3,25.9,29.90,NNW,338,0.2,1.1,87,0.00,BKN,SKC,0.00,WeatherDisplay:10.37,2013-02-10 01:12:00,
2013-02-10 02:17:00,29.3,25.9,29.90,North,0,0.0,0.0,87,0.00,-SN,SKC,0.00,WeatherDisplay:10.37,2013-02-10 01:17:00,
2013-02-10 02:22:00,29.3,25.9,29.90,NNW,338,1.0,1.3,87,0.00,-SN,SKC,0.00,WeatherDisplay:10.37,2013-02-10 01:22:00,
2013-02-10 02:27:00,29.3,25.9,29.90,NW,315,2.5,2.5,87,0.00,-SN,SKC,0.00,WeatherDisplay:10.37,2013-02-10 01:27:00,
2013-02-10 02:32:00,29.5,26.1,29.89,NNW,339,1.1,1.1,87,0.00,-SN,SKC,0.00,WeatherDisplay:10.37,2013-02-10 01:32:00,
2013-02-10 02:37:00,29.5,26.1,29.90,NNW,338,0.9,1.1,87,0.00,-SN,SKC,0.00,WeatherDisplay:10.37,2013-02-10 01:37:00,
2013-02-10 02:43:00,29.5,26.1,29.89,NW,315,0.9,1.1,87,0.00,-SN,SKC,0.00,WeatherDisplay:10.37,2013-02-10 01:43:00,
2013-02-10 02:48:00,29.5,26.1,29.89,North,0,0.0,0.0,87,0.00,-SN,SKC,0.00,WeatherDisplay:10.37,2013-02-10 01:48:00,
2013-02-10 02:53:00,29.5,26.1,29.89,NNW,338,2.0,2.3,87,0.00,-SN,SKC,0.00,WeatherDisplay:10.37,2013-02-10 01:53:00,
2013-02-10 02:58:00,29.7,26.3,29.89,NNW,338,0.0,0.0,87,0.00,-SN,SKC,0.00,WeatherDisplay:10.37,2013-02-10 01:58:00,
2013-02-10 03:03:00,29.7,26.3,29.88,NW,315,0.0,1.1,87,0.00,-SN,SKC,0.00,WeatherDisplay:10.37,2013-02-10 02:03:00,
2013-02-10 03:08:00,29.7,26.3,29.89,NNW,338,0.4,1.1,87,0.00,-SN,SKC,0.00,WeatherDisplay:10.37,2013-02-10 02:08:00,
2013-02-10 03:13:00,29.7,26.3,29.88,NNW,338,0.0,0.0,87,0.00,-SN,SKC,0.00,WeatherDisplay:10.37,2013-02-10 02:13:00,
2013-02-10 03:18:00,29.7,26.3,29.88,NNW,338,0.7,1.1,87,0.00,-SN,SKC,0.00,WeatherDisplay:10.37,2013-02-10 02:18:00,
2013-02-10 03:23:00,29.7,26.3,29.88,NW,315,1.4,2.3,87,0.00,-SN,SKC,0.00,WeatherDisplay:10.37,2013-02-10 02:23:00,
2013-02-10 03:28:00,29.7,26.0,29.88,NNE,22,0.0,1.1,86,0.00,-SN,SKC,0.00,WeatherDisplay:10.37,2013-02-10 02:28:00,
2013-02-10 03:33:00,29.8,26.2,29.88,NNE,22,0.0,0.0,86,0.00,-SN,SKC,0.00,WeatherDisplay:10.37,2013-02-10 02:33:00,
2013-02-10 03:38:00,29.8,26.2,29.88,NNE,22,0.0,1.1,86,0.00,-SN,SKC,0.00,WeatherDisplay:10.37,2013-02-10 02:38:00,
2013-02-10 03:43:00,29.8,26.2,29.88,NE,45,0.0,1.1,86,0.00,-SN,SKC,0.00,WeatherDisplay:10.37,2013-02-10 02:43:00,
2013-02-10 03:48:00,29.8,26.2,29.88,North,0,1.2,2.2,86,0.00,-SN,SKC,0.00,WeatherDisplay:10.37,2013-02-10 02:48:00,
2013-02-10 03:53:00,29.8,26.2,29.87,ENE,68,2.6,2.6,86,0.00,-SN,SKC,0.00,WeatherDisplay:10.37,2013-02-10 02:53:00,
2013-02-10 03:58:00,30.0,26.3,29.88,NNE,22,0.1,2.3,86,0.00,-SN,SKC,0.00,WeatherDisplay:10.37,2013-02-10 02:58:00,
2013-02-10 04:03:00,30.0,26.3,29.88,NNE,22,0.9,1.1,86,0.00,-SN,SKC,0.00,WeatherDisplay:10.37,2013-02-10 03:03:00,
2013-02-10 04:08:00,29.8,25.9,29.88,NNW,338,1.1,1.1,85,0.00,-SN,SKC,0.00,WeatherDisplay:10.37,2013-02-10 03:08:00,
2013-02-10 04:13:00,29.8,26.2,29.87,ESE,112,0.0,0.0,86,0.00,-SN,SKC,0.00,WeatherDisplay:10.37,2013-02-10 03:13:00,
2013-02-10 04:18:00,29.8,25.9,29.87,NE,45,0.0,0.0,85,0.00,-SN,SKC,0.00,WeatherDisplay:10.37,2013-02-10 03:18:00,
2013-02-10 04:23:00,29.8,25.9,29.88,NW,315,0.0,0.0,85,0.00,-SN,SKC,0.00,WeatherDisplay:10.37,2013-02-10 03:23:00,
2013-02-10 04:28:00,29.8,25.9,29.87,NNW,338,1.3,1.3,85,0.00,-SN,SKC,0.00,WeatherDisplay:10.37,2013-02-10 03:28:00,
2013-02-10 04:33:00,29.8,25.9,29.87,NW,315,0.0,0.0,85,0.00,-SN,SKC,0.00,WeatherDisplay:10.37,2013-02-10 03:33:00,
2013-02-10 04:38:00,29.8,25.9,29.88,NNE,22,0.0,0.0,85,0.00,-SN,SKC,0.00,WeatherDisplay:10.37,2013-02-10 03:38:00,
2013-02-10 04:43:00,29.8,25.9,29.87,ENE,68,0.0,2.3,85,0.00,-SN,SKC,0.00,WeatherDisplay:10.37,2013-02-10 03:43:00,
2013-02-10 04:48:00,29.8,25.9,29.88,NNE,22,1.1,1.1,85,0.00,-SN,SKC,0.00,WeatherDisplay:10.37,2013-02-10 03:48:00,
2013-02-10 04:53:00,29.8,25.9,29.88,NW,315,0.1,2.3,85,0.00,-SN,SKC,0.00,WeatherDisplay:10.37,2013-02-10 03:53:00,
2013-02-10 04:58:00,29.8,25.9,29.88,NNW,338,0.0,0.0,85,0.00,-SN,SKC,0.00,WeatherDisplay:10.37,2013-02-10 03:58:00,
2013-02-10 05:03:00,30.0,26.1,29.88,NNW,338,2.1,2.3,85,0.00,-SN,SKC,0.00,WeatherDisplay:10.37,2013-02-10 04:03:00,
2013-02-10 05:08:00,29.8,25.9,29.88,NNW,338,0.0,0.0,85,0.00,-SN,SKC,0.00,WeatherDisplay:10.37,2013-02-10 04:08:00,
2013-02-10 05:13:00,29.8,25.9,29.88,NNW,338,0.0,0.0,85,0.00,-SN,SKC,0.00,WeatherDisplay:10.37,2013-02-10 04:13:00,
2013-02-10 05:18:00,29.8,25.9,29.88,North,0,0.0,0.0,85,0.00,-SN,SKC,0.00,WeatherDisplay:10.37,2013-02-10 04:18:00,
2013-02-10 05:23:00,29.8,25.9,29.88,NNW,338,0.0,0.0,85,0.00,-SN,SKC,0.00,WeatherDisplay:10.37,2013-02-10 04:23:00,
2013-02-10 05:28:00,29.8,25.9,29.88,NE,45,0.0,0.0,85,0.00,-SN,SKC,0.00,WeatherDisplay:10.37,2013-02-10 04:28:00,
2013-02-10 05:33:00,29.8,25.9,29.88,NNE,22,0.6,2.0,85,0.00,-SN,SKC,0.00,WeatherDisplay:10.37,2013-02-10 04:33:00,
2013-02-10 05:38:00,29.8,25.9,29.88,NNE,22,0.0,0.0,85,0.00,-SN,SKC,0.00,WeatherDisplay:10.37,2013-02-10 04:38:00,
2013-02-10 05:43:00,29.8,25.9,29.88,NNE,22,0.0,0.0,85,0.00,-SN,SKC,0.00,WeatherDisplay:10.37,2013-02-10 04:43:00,
2013-02-10 05:48:00,29.8,25.9,29.87,North,0,0.0,0.0,85,0.00,-SN,SKC,0.00,WeatherDisplay:10.37,2013-02-10 04:48:00,
2013-02-10 05:53:00,29.8,25.9,29.87,NNW,338,0.0,0.0,85,0.00,-SN,SKC,0.00,WeatherDisplay:10.37,2013-02-10 04:53:00,
2013-02-10 05:58:00,29.8,25.9,29.88,NNW,338,0.1,1.1,85,0.00,-SN,SKC,0.00,WeatherDisplay:10.37,2013-02-10 04:58:00,
2013-02-10 06:00:00,29.8,25.9,29.88,NNW,338,1.1,1.1,85,0.00,-SN,SKC,0.00,WeatherDisplay:10.37,2013-02-10 05:00:00,
2013-02-10 06:05:00,29.8,25.9,29.87,North,0,0.0,0.0,85,0.00,-SN,SKC,0.00,WeatherDisplay:10.37,2013-02-10 05:05:00,
2013-02-10 06:10:00,29.8,25.9,29.87,North,0,0.0,0.0,85,0.00,-SN,SKC,0.00,WeatherDisplay:10.37,2013-02-10 05:10:00,
2013-02-10 06:15:00,29.7,25.7,29.87,NNE,22,0.0,0.0,85,0.00,-SN,SKC,0.00,WeatherDisplay:10.37,2013-02-10 05:15:00,
2013-02-10 06:20:00,29.5,25.8,29.87,NE,45,0.0,1.1,86,0.00,-SN,SKC,0.00,WeatherDisplay:10.37,2013-02-10 05:20:00,
2013-02-10 06:25:00,29.5,25.8,29.87,NNE,25,0.0,0.0,86,0.00,-SN,SKC,0.00,WeatherDisplay:10.37,2013-02-10 05:25:00,
2013-02-10 06:30:00,29.1,25.7,29.87,North,0,0.0,0.0,87,0.00,-SN,SKC,0.00,WeatherDisplay:10.37,2013-02-10 05:30:00,
2013-02-10 06:35:00,29.1,25.7,29.87,NNW,338,0.0,0.7,87,0.00,OVC,SKC,0.00,WeatherDisplay:10.37,2013-02-10 05:35:00,
2013-02-10 06:40:00,29.1,25.7,29.86,North,0,0.0,0.0,87,0.00,OVC,SKC,0.00,WeatherDisplay:10.37,2013-02-10 05:40:00,
2013-02-10 06:45:00,28.9,25.8,29.86,NNW,342,0.0,0.0,88,0.00,OVC,SKC,0.00,WeatherDisplay:10.37,2013-02-10 05:45:00,
2013-02-10 06:50:00,28.9,25.8,29.86,NNW,338,0.0,1.1,88,0.00,OVC,SKC,0.00,WeatherDisplay:10.37,2013-02-10 05:50:00,
2013-02-10 06:55:00,28.9,25.8,29.86,NNW,339,0.0,0.0,88,0.00,OVC,SKC,0.00,WeatherDisplay:10.37,2013-02-10 05:55:00,
2013-02-10 07:00:00,28.8,25.7,29.86,WNW,292,0.0,0.0,88,0.00,OVC,SKC,0.00,WeatherDisplay:10.37,2013-02-10 06:00:00,
2013-02-10 07:05:00,28.8,25.9,29.86,WNW,300,0.0,0.0,89,0.00,OVC,SKC,0.00,WeatherDisplay:10.37,2013-02-10 06:05:00,
2013-02-10 07:10:00,28.8,25.9,29.86,North,0,0.0,0.0,89,0.00,OVC,SKC,0.00,WeatherDisplay:10.37,2013-02-10 06:10:00,
2013-02-10 07:15:00,28.8,25.9,29.87,NNW,338,0.0,0.0,89,0.00,OVC,SKC,0.00,WeatherDisplay:10.37,2013-02-10 06:15:00,
2013-02-10 07:20:00,28.8,25.9,29.86,NW,315,0.0,0.0,89,0.00,-SN,SKC,0.00,WeatherDisplay:10.37,2013-02-10 06:20:00,
2013-02-10 07:25:00,28.8,25.9,29.86,WNW,292,0.9,1.1,89,0.00,-SN,SKC,0.00,WeatherDisplay:10.37,2013-02-10 06:25:00,
2013-02-10 07:30:00,28.8,25.9,29.86,North,0,0.0,0.0,89,0.00,-SN,SKC,0.00,WeatherDisplay:10.37,2013-02-10 06:30:00,
2013-02-10 07:35:00,28.8,25.9,29.86,NNW,344,0.0,0.0,89,0.00,-SN,SKC,0.00,WeatherDisplay:10.37,2013-02-10 06:35:00,
2013-02-10 07:40:00,28.8,25.9,29.86,NNW,336,0.0,0.0,89,0.00,-SN,SKC,0.00,WeatherDisplay:10.37,2013-02-10 06:40:00,
2013-02-10 07:45:00,28.9,26.1,29.87,NNW,338,0.0,0.0,89,0.00,-SN,SKC,0.00,WeatherDisplay:10.37,2013-02-10 06:45:00,
2013-02-10 07:50:00,28.9,26.1,29.87,NNW,338,0.0,0.0,89,0.00,-SN,SKC,0.00,WeatherDisplay:10.37,2013-02-10 06:50:00,
2013-02-10 07:55:00,28.9,26.1,29.87,NNW,338,0.0,0.0,89,0.00,-SN,SKC,0.00,WeatherDisplay:10.37,2013-02-10 06:55:00,
2013-02-10 08:00:00,29.1,26.3,29.87,NNW,338,0.0,0.0,89,0.00,-SN,SKC,0.00,WeatherDisplay:10.37,2013-02-10 07:00:00,
2013-02-10 08:05:00,29.1,26.3,29.87,North,351,0.0,0.0,89,0.00,-SN,SKC,0.00,WeatherDisplay:10.37,2013-02-10 07:05:00,
2013-02-10 08:10:00,29.3,26.7,29.87,NW,315,0.0,0.0,90,0.00,-SN,SKC,0.00,WeatherDisplay:10.37,2013-02-10 07:10:00,
2013-02-10 08:15:00,29.3,26.7,29.87,NW,315,0.0,0.0,90,0.00,-SN,SKC,0.00,WeatherDisplay:10.37,2013-02-10 07:15:00,
2013-02-10 08:20:00,29.7,27.1,29.87,NNW,338,0.0,0.0,90,0.00,-SN,SKC,0.00,WeatherDisplay:10.37,2013-02-10 07:20:00,
2013-02-10 08:25:00,29.7,27.1,29.87,NNW,338,0.0,0.0,90,0.00,-SN,SKC,0.00,WeatherDisplay:10.37,2013-02-10 07:25:00,
2013-02-10 08:30:00,29.8,27.3,29.87,WNW,292,0.0,0.0,90,0.00,-SN,SKC,0.00,WeatherDisplay:10.37,2013-02-10 07:30:00,
2013-02-10 08:35:00,30.0,27.4,29.87,WNW,292,0.0,0.0,90,0.00,-SN,SKC,0.00,WeatherDisplay:10.37,2013-02-10 07:35:00,
2013-02-10 08:40:00,29.8,27.3,29.87,NNW,338,0.0,0.0,90,0.00,-SN,SKC,0.00,WeatherDisplay:10.37,2013-02-10 07:40:00,
2013-02-10 08:45:00,29.8,27.3,29.87,NNW,338,0.0,0.0,90,0.00,-SN,SKC,0.00,WeatherDisplay:10.37,2013-02-10 07:45:00,
2013-02-10 08:50:00,29.8,27.3,29.87,North,0,0.0,0.0,90,0.00,-SN,SKC,0.00,WeatherDisplay:10.37,2013-02-10 07:50:00,
2013-02-10 08:55:00,29.8,27.3,29.87,North,0,0.0,0.0,90,0.00,-SN,SKC,0.00,WeatherDisplay:10.37,2013-02-10 07:55:00,
2013-02-10 09:00:00,29.8,27.3,29.87,NNW,338,0.9,1.1,90,0.00,-SN,SKC,0.00,WeatherDisplay:10.37,2013-02-10 08:00:00,
2013-02-10 09:05:00,30.0,27.4,29.87,NNW,338,0.1,1.1,90,0.00,-SN,SKC,0.00,WeatherDisplay:10.37,2013-02-10 08:05:00,
2013-02-10 09:10:00,30.0,27.4,29.87,NNW,338,0.1,1.1,90,0.00,-SN,SKC,0.00,WeatherDisplay:10.37,2013-02-10 08:10:00,
2013-02-10 09:15:00,30.0,27.4,29.88,ENE,68,0.0,0.0,90,0.00,-SN,SKC,0.00,WeatherDisplay:10.37,2013-02-10 08:15:00,
2013-02-10 09:20:00,30.0,27.4,29.87,NW,315,0.0,0.0,90,0.00,-SN,SKC,0.00,WeatherDisplay:10.37,2013-02-10 08:20:00,
2013-02-10 09:25:00,30.2,27.6,29.87,NNW,338,0.1,1.1,90,0.00,-SN,SKC,0.00,WeatherDisplay:10.37,2013-02-10 08:25:00,
2013-02-10 09:30:00,30.2,27.6,29.87,NNW,338,0.0,0.0,90,0.00,-SN,SKC,0.00,WeatherDisplay:10.37,2013-02-10 08:30:00,
2013-02-10 09:35:00,30.2,27.6,29.87,North,0,0.0,0.0,90,0.00,-SN,SKC,0.00,WeatherDisplay:10.37,2013-02-10 08:35:00,
2013-02-10 09:40:00,30.4,27.8,29.87,NE,45,0.0,0.0,90,0.00,-SN,SKC,0.00,WeatherDisplay:10.37,2013-02-10 08:40:00,
2013-02-10 09:45:00,30.4,27.5,29.87,North,0,0.0,0.0,89,0.00,-SN,SKC,0.00,WeatherDisplay:10.37,2013-02-10 08:45:00,
2013-02-10 09:50:00,30.4,27.5,29.86,NE,45,0.0,0.0,89,0.00,OVC,SKC,0.00,WeatherDisplay:10.37,2013-02-10 08:50:00,
2013-02-10 09:55:00,30.4,27.5,29.87,NNE,22,0.5,2.3,89,0.00,OVC,SKC,0.00,WeatherDisplay:10.37,2013-02-10 08:55:00,
2013-02-10 10:00:00,30.4,27.5,29.87,NNW,338,0.1,2.3,89,0.00,OVC,SKC,0.00,WeatherDisplay:10.37,2013-02-10 09:00:00,
2013-02-10 10:05:00,30.4,27.5,29.87,NNW,338,1.1,1.1,89,0.00,OVC,SKC,0.00,WeatherDisplay:10.37,2013-02-10 09:05:00,
2013-02-10 10:10:00,30.4,27.5,29.87,NNW,338,1.0,2.3,89,0.00,OVC,SKC,0.00,WeatherDisplay:10.37,2013-02-10 09:10:00,
2013-02-10 10:15:00,30.6,27.7,29.87,WNW,292,0.0,0.0,89,0.00,OVC,SKC,0.00,WeatherDisplay:10.37,2013-02-10 09:15:00,
2013-02-10 10:20:00,30.6,27.7,29.87,North,0,0.0,0.0,89,0.00,OVC,SKC,0.00,WeatherDisplay:10.37,2013-02-10 09:20:00,
2013-02-10 10:25:00,30.7,27.9,29.87,North,0,0.4,1.1,89,0.00,OVC,SKC,0.00,WeatherDisplay:10.37,2013-02-10 09:25:00,
2013-02-10 10:30:00,30.9,28.1,29.87,ENE,68,1.4,2.3,89,0.00,OVC,SKC,0.00,WeatherDisplay:10.37,2013-02-10 09:30:00,
2013-02-10 10:35:00,30.7,27.9,29.87,North,0,0.2,1.6,89,0.00,OVC,SKC,0.00,WeatherDisplay:10.37,2013-02-10 09:35:00,
2013-02-10 10:40:00,31.1,28.0,29.87,NE,45,0.0,0.0,88,0.00,OVC,SKC,0.00,WeatherDisplay:10.37,2013-02-10 09:40:00,
2013-02-10 10:45:00,31.1,28.0,29.87,NW,315,0.0,0.0,88,0.00,OVC,SKC,0.00,WeatherDisplay:10.37,2013-02-10 09:45:00,
2013-02-10 10:50:00,31.6,28.5,29.87,NE,45,1.9,2.7,88,0.00,OVC,SKC,0.00,WeatherDisplay:10.37,2013-02-10 09:50:00,
2013-02-10 10:55:00,31.8,28.7,29.86,NNE,22,1.2,1.2,88,0.00,OVC,SKC,0.00,WeatherDisplay:10.37,2013-02-10 09:55:00,
2013-02-10 11:00:00,31.8,28.7,29.87,NNE,22,3.1,3.5,88,0.00,OVC,SKC,0.00,WeatherDisplay:10.37,2013-02-10 10:00:00,
2013-02-10 11:05:00,31.8,28.7,29.86,NW,315,1.5,1.5,88,0.00,OVC,SKC,0.00,WeatherDisplay:10.37,2013-02-10 10:05:00,
2013-02-10 11:10:00,31.6,28.5,29.86,North,0,1.1,1.1,88,0.02,RA,SKC,0.02,WeatherDisplay:10.37,2013-02-10 10:10:00,
2013-02-10 11:15:00,31.3,28.1,29.86,WNW,292,2.7,2.7,88,0.02,RA,SKC,0.02,WeatherDisplay:10.37,2013-02-10 10:15:00,
2013-02-10 11:20:00,31.5,28.3,29.85,NW,315,0.0,0.0,88,0.02,-SN,SKC,0.02,WeatherDisplay:10.37,2013-02-10 10:20:00,
2013-02-10 11:25:00,31.5,28.3,29.85,NNW,338,0.0,0.0,88,0.02,-SN,SKC,0.02,WeatherDisplay:10.37,2013-02-10 10:25:00,
2013-02-10 11:30:00,31.8,28.7,29.85,North,0,3.6,3.6,88,0.02,-SN,SKC,0.02,WeatherDisplay:10.37,2013-02-10 10:30:00,
2013-02-10 11:35:00,31.8,28.7,29.85,NNE,22,0.1,1.1,88,0.02,-SN,SKC,0.02,WeatherDisplay:10.37,2013-02-10 10:35:00,
2013-02-10 11:40:00,31.8,28.7,29.85,North,0,0.0,0.0,88,0.02,-SN,SKC,0.02,WeatherDisplay:10.37,2013-02-10 10:40:00,
2013-02-10 11:45:00,31.8,28.4,29.85,ENE,68,0.0,0.0,87,0.02,-SN,SKC,0.02,WeatherDisplay:10.37,2013-02-10 10:45:00,
2013-02-10 11:50:00,31.8,28.4,29.85,NW,315,0.9,1.1,87,0.02,-SN,SKC,0.02,WeatherDisplay:10.37,2013-02-10 10:50:00,
2013-02-10 11:55:00,31.6,28.2,29.85,NNW,338,0.0,0.0,87,0.02,-SN,SKC,0.02,WeatherDisplay:10.37,2013-02-10 10:55:00,
2013-02-10 12:00:00,31.8,28.4,29.85,NNE,22,0.9,1.1,87,0.02,-SN,SKC,0.02,WeatherDisplay:10.37,2013-02-10 11:00:00,
2013-02-10 12:05:00,31.8,28.4,29.85,NE,45,0.0,1.1,87,0.02,-SN,SKC,0.02,WeatherDisplay:10.37,2013-02-10 11:05:00,
2013-02-10 12:10:00,31.8,28.4,29.85,NW,315,0.6,2.5,87,0.00,-SN,SKC,0.02,WeatherDisplay:10.37,2013-02-10 11:10:00,
2013-02-10 12:15:00,31.6,28.2,29.85,NW,315,0.2,1.1,87,0.00,-SN,SKC,0.02,WeatherDisplay:10.37,2013-02-10 11:15:00,
2013-02-10 12:20:00,31.6,28.2,29.85,ENE,68,0.0,0.0,87,0.00,OVC,SKC,0.02,WeatherDisplay:10.37,2013-02-10 11:20:00,
2013-02-10 12:25:00,31.8,28.4,29.84,North,0,0.0,0.0,87,0.00,OVC,SKC,0.02,WeatherDisplay:10.37,2013-02-10 11:25:00,
2013-02-10 12:30:00,31.8,28.4,29.85,NE,45,0.0,0.0,87,0.00,OVC,SKC,0.02,WeatherDisplay:10.37,2013-02-10 11:30:00,
2013-02-10 12:35:00,31.8,28.4,29.85,ENE,68,0.0,0.0,87,0.00,OVC,SKC,0.02,WeatherDisplay:10.37,2013-02-10 11:35:00,
2013-02-10 12:40:00,31.8,28.4,29.85,NW,315,0.0,0.0,87,0.00,OVC,SKC,0.02,WeatherDisplay:10.37,2013-02-10 11:40:00,
2013-02-10 12:45:00,31.6,28.2,29.85,NNE,22,0.0,0.0,87,0.00,OVC,SKC,0.02,WeatherDisplay:10.37,2013-02-10 11:45:00,
2013-02-10 12:50:00,31.6,28.2,29.85,NNW,338,0.1,1.1,87,0.00,OVC,SKC,0.02,WeatherDisplay:10.37,2013-02-10 11:50:00,
2013-02-10 12:55:00,31.6,28.2,29.85,NNW,338,0.3,1.1,87,0.00,OVC,SKC,0.02,WeatherDisplay:10.37,2013-02-10 11:55:00,
2013-02-10 13:00:00,31.6,28.2,29.84,North,0,0.0,0.0,87,0.00,OVC,SKC,0.02,WeatherDisplay:10.37,2013-02-10 12:00:00,
2013-02-10 13:05:00,31.6,28.2,29.84,NE,45,0.0,0.0,87,0.00,OVC,SKC,0.02,WeatherDisplay:10.37,2013-02-10 12:05:00,
2013-02-10 13:10:00,31.6,28.5,29.84,North,0,0.0,0.0,88,0.00,OVC,SKC,0.02,WeatherDisplay:10.37,2013-02-10 12:10:00,
2013-02-10 13:15:00,31.6,28.5,29.84,NNW,338,0.0,0.0,88,0.00,OVC,SKC,0.02,WeatherDisplay:10.37,2013-02-10 12:15:00,
2013-02-10 13:20:00,31.8,28.7,29.84,NNW,338,0.0,0.0,88,0.00,OVC,SKC,0.02,WeatherDisplay:10.37,2013-02-10 12:20:00,
2013-02-10 13:25:00,31.8,28.7,29.84,NNW,338,0.0,1.1,88,0.00,OVC,SKC,0.02,WeatherDisplay:10.37,2013-02-10 12:25:00,
2013-02-10 13:30:00,31.8,28.7,29.83,North,0,0.0,0.9,88,0.00,OVC,SKC,0.02,WeatherDisplay:10.37,2013-02-10 12:30:00,
2013-02-10 13:35:00,31.6,28.5,29.83,North,0,0.0,0.0,88,0.00,OVC,SKC,0.02,WeatherDisplay:10.37,2013-02-10 12:35:00,
2013-02-10 13:40:00,31.6,28.5,29.83,North,0,0.0,0.0,88,0.00,OVC,SKC,0.02,WeatherDisplay:10.37,2013-02-10 12:40:00,
2013-02-10 13:45:00,31.6,28.5,29.83,North,0,0.0,0.0,88,0.00,OVC,SKC,0.02,WeatherDisplay:10.37,2013-02-10 12:45:00,
2013-02-10 13:50:00,31.8,28.9,29.83,North,0,0.0,0.0,89,0.00,-SN,SKC,0.02,WeatherDisplay:10.37,2013-02-10 12:50:00,
2013-02-10 13:55:00,32.2,29.3,29.83,North,1,0.0,0.0,89,0.00,-SN,SKC,0.02,WeatherDisplay:10.37,2013-02-10 12:55:00,
2013-02-10 14:00:00,32.2,29.3,29.83,North,0,0.0,0.0,89,0.00,-SN,SKC,0.02,WeatherDisplay:10.37,2013-02-10 13:00:00,
2013-02-10 14:05:00,31.8,28.7,29.83,North,0,0.0,0.0,88,0.00,-SN,SKC,0.02,WeatherDisplay:10.37,2013-02-10 13:05:00,
2013-02-10 14:10:00,31.8,28.7,29.83,North,0,0.0,0.0,88,0.00,-SN,SKC,0.02,WeatherDisplay:10.37,2013-02-10 13:10:00,
2013-02-10 14:15:00,31.8,28.7,29.83,North,0,0.0,0.0,88,0.00,-SN,SKC,0.02,WeatherDisplay:10.37,2013-02-10 13:15:00,
2013-02-10 14:20:00,31.8,28.7,29.83,North,0,1.1,3.5,88,0.00,OVC,SKC,0.02,WeatherDisplay:10.37,2013-02-10 13:20:00,
2013-02-10 14:25:00,31.8,28.7,29.83,North,0,0.1,2.3,88,0.00,OVC,SKC,0.02,WeatherDisplay:10.37,2013-02-10 13:25:00,
2013-02-10 14:30:00,31.8,28.7,29.83,North,0,0.5,1.1,88,0.00,OVC,SKC,0.02,WeatherDisplay:10.37,2013-02-10 13:30:00,
2013-02-10 14:35:00,31.8,28.7,29.83,NE,45,0.0,0.0,88,0.00,OVC,SKC,0.02,WeatherDisplay:10.37,2013-02-10 13:35:00,
2013-02-10 14:40:00,31.8,28.7,29.83,NNW,338,0.0,0.0,88,0.00,OVC,SKC,0.02,WeatherDisplay:10.37,2013-02-10 13:40:00,
2013-02-10 14:45:00,31.8,28.7,29.83,NNW,338,0.0,0.0,88,0.00,OVC,SKC,0.02,WeatherDisplay:10.37,2013-02-10 13:45:00,
2013-02-10 14:50:00,31.6,28.5,29.83,NNE,22,0.0,0.0,88,0.00,-SN,SKC,0.02,WeatherDisplay:10.37,2013-02-10 13:50:00,
2013-02-10 14:55:00,31.6,28.5,29.83,NNE,22,0.0,0.0,88,0.00,-SN,SKC,0.02,WeatherDisplay:10.37,2013-02-10 13:55:00,
2013-02-10 15:00:00,31.5,28.3,29.83,NNE,22,0.0,0.0,88,0.00,-SN,SKC,0.02,WeatherDisplay:10.37,2013-02-10 14:00:00,
2013-02-10 15:05:00,31.3,28.1,29.83,NNE,22,0.0,0.0,88,0.00,-SN,SKC,0.02,WeatherDisplay:10.37,2013-02-10 14:05:00,
2013-02-10 15:10:00,31.3,28.1,29.83,NNE,22,0.0,0.0,88,0.00,-SN,SKC,0.02,WeatherDisplay:10.37,2013-02-10 14:10:00,
2013-02-10 15:16:00,31.3,28.1,29.83,NNE,22,0.0,0.0,88,0.00,-SN,SKC,0.02,WeatherDisplay:10.37,2013-02-10 14:16:00,
2013-02-10 15:21:00,31.3,28.4,29.83,NNE,22,0.0,0.0,89,0.00,-SN,SKC,0.02,WeatherDisplay:10.37,2013-02-10 14:21:00,
2013-02-10 15:26:00,31.1,28.2,29.83,NNE,22,0.0,0.0,89,0.00,-SN,SKC,0.02,WeatherDisplay:10.37,2013-02-10 14:26:00,
2013-02-10 15:31:00,31.1,28.2,29.83,NNE,22,0.0,0.0,89,0.00,-SN,SKC,0.02,WeatherDisplay:10.37,2013-02-10 14:31:00,
2013-02-10 15:36:00,30.9,28.1,29.83,NNE,22,0.0,0.0,89,0.00,-SN,SKC,0.02,WeatherDisplay:10.37,2013-02-10 14:36:00,
2013-02-10 15:41:00,30.9,28.1,29.83,NNE,22,0.0,0.0,89,0.00,-SN,SKC,0.02,WeatherDisplay:10.37,2013-02-10 14:41:00,
2013-02-10 15:46:00,30.9,28.1,29.82,NNE,22,0.0,0.0,89,0.00,-SN,SKC,0.02,WeatherDisplay:10.37,2013-02-10 14:46:00,
2013-02-10 15:51:00,30.9,28.1,29.82,NNE,22,0.0,0.0,89,0.00,-SN,SKC,0.02,WeatherDisplay:10.37,2013-02-10 14:51:00,
2013-02-10 15:56:00,30.9,28.3,29.82,NNE,22,0.0,0.0,90,0.00,-SN,SKC,0.02,WeatherDisplay:10.37,2013-02-10 14:56:00,
2013-02-10 16:01:00,30.9,28.3,29.82,NNE,22,0.0,0.0,90,0.00,-SN,SKC,0.02,WeatherDisplay:10.37,2013-02-10 15:01:00,
2013-02-10 16:06:00,30.9,28.3,29.82,NNE,22,0.0,0.0,90,0.00,-SN,SKC,0.02,WeatherDisplay:10.37,2013-02-10 15:06:00,
2013-02-10 16:11:00,30.7,28.2,29.82,NNE,22,0.0,0.0,90,0.00,-SN,SKC,0.02,WeatherDisplay:10.37,2013-02-10 15:11:00,
2013-02-10 16:16:00,30.7,28.2,29.83,NNE,22,0.0,0.0,90,0.00,-SN,SKC,0.02,WeatherDisplay:10.37,2013-02-10 15:16:00,
2013-02-10 16:21:00,30.7,28.2,29.82,NNE,22,0.0,0.0,90,0.00,-SN,SKC,0.02,WeatherDisplay:10.37,2013-02-10 15:21:00,
2013-02-10 16:26:00,30.7,28.2,29.83,NNE,22,0.0,0.0,90,0.00,-SN,SKC,0.02,WeatherDisplay:10.37,2013-02-10 15:26:00,
2013-02-10 16:31:00,30.7,28.2,29.82,NNE,22,1.6,1.6,90,0.00,-SN,SKC,0.02,WeatherDisplay:10.37,2013-02-10 15:31:00,
2013-02-10 16:36:00,30.6,28.0,29.82,NNE,22,0.0,0.0,90,0.00,-SN,SKC,0.02,WeatherDisplay:10.37,2013-02-10 15:36:00,
2013-02-10 16:41:00,30.4,27.8,29.82,NNE,22,0.0,0.0,90,0.00,-SN,SKC,0.02,WeatherDisplay:10.37,2013-02-10 15:41:00,
2013-02-10 16:46:00,30.4,27.8,29.82,NNE,22,1.8,2.3,90,0.00,-SN,SKC,0.02,WeatherDisplay:10.37,2013-02-10 15:46:00,
2013-02-10 16:51:00,30.0,27.4,29.82,NNE,22,0.1,2.3,90,0.00,-SN,SKC,0.02,WeatherDisplay:10.37,2013-02-10 15:51:00,
2013-02-10 16:56:00,30.0,27.4,29.83,NNE,22,0.0,0.0,90,0.00,-SN,SKC,0.02,WeatherDisplay:10.37,2013-02-10 15:56:00,
2013-02-10 17:01:00,30.0,27.4,29.83,NNE,22,0.1,1.1,90,0.00,-SN,SKC,0.02,WeatherDisplay:10.37,2013-02-10 16:01:00,
2013-02-10 17:06:00,30.0,27.4,29.82,NNE,22,1.3,2.3,90,0.00,-SN,SKC,0.02,WeatherDisplay:10.37,2013-02-10 16:06:00,
2013-02-10 17:11:00,29.8,27.3,29.83,NNE,22,1.0,1.1,90,0.00,-SN,SKC,0.02,WeatherDisplay:10.37,2013-02-10 16:11:00,
2013-02-10 17:16:00,29.7,27.1,29.83,NNE,22,0.0,1.1,90,0.00,-SN,SKC,0.02,WeatherDisplay:10.37,2013-02-10 16:16:00,
2013-02-10 17:21:00,29.7,27.1,29.83,NNE,22,2.6,3.5,90,0.00,-SN,SKC,0.02,WeatherDisplay:10.37,2013-02-10 16:21:00,
2013-02-10 17:26:00,29.7,27.1,29.83,NNE,22,1.6,1.6,90,0.00,-SN,SKC,0.02,WeatherDisplay:10.37,2013-02-10 16:26:00,
2013-02-10 17:31:00,29.5,26.9,29.83,NNE,22,1.4,3.5,90,0.00,-SN,SKC,0.02,WeatherDisplay:10.37,2013-02-10 16:31:00,
2013-02-10 17:36:00,29.5,26.9,29.83,NNE,22,1.3,1.3,90,0.00,-SN,SKC,0.02,WeatherDisplay:10.37,2013-02-10 16:36:00,
2013-02-10 17:41:00,29.5,26.9,29.83,NNE,22,0.8,2.3,90,0.00,-SN,SKC,0.02,WeatherDisplay:10.37,2013-02-10 16:41:00,
2013-02-10 17:46:00,29.5,26.9,29.83,NNE,22,0.0,0.0,90,0.00,-SN,SKC,0.02,WeatherDisplay:10.37,2013-02-10 16:46:00,
2013-02-10 17:51:00,29.5,26.9,29.83,NNE,22,0.0,0.0,90,0.00,-SN,SKC,0.02,WeatherDisplay:10.37,2013-02-10 16:51:00,
2013-02-10 17:56:00,29.5,26.9,29.83,NNE,22,0.0,0.9,90,0.00,-SN,SKC,0.02,WeatherDisplay:10.37,2013-02-10 16:56:00,
2013-02-10 18:01:00,29.5,26.9,29.83,NNE,22,1.3,1.3,90,0.00,-SN,SKC,0.02,WeatherDisplay:10.37,2013-02-10 17:01:00,
2013-02-10 18:06:00,29.5,26.9,29.84,NNE,22,3.8,3.8,90,0.00,-SN,SKC,0.02,WeatherDisplay:10.37,2013-02-10 17:06:00,
2013-02-10 18:11:00,29.5,26.9,29.83,NNE,22,0.3,2.3,90,0.00,-SN,SKC,0.02,WeatherDisplay:10.37,2013-02-10 17:11:00,
2013-02-10 18:16:00,29.5,26.9,29.83,NNE,22,0.0,0.0,90,0.00,-SN,SKC,0.02,WeatherDisplay:10.37,2013-02-10 17:16:00,
2013-02-10 18:21:00,29.5,26.9,29.83,NNE,22,0.1,1.8,90,0.00,-SN,SKC,0.02,WeatherDisplay:10.37,2013-02-10 17:21:00,
2013-02-10 18:26:00,29.5,26.9,29.83,NNE,22,1.6,1.6,90,0.00,-SN,SKC,0.02,WeatherDisplay:10.37,2013-02-10 17:26:00,
2013-02-10 18:31:00,29.3,26.7,29.83,NNE,22,0.1,0.0,90,0.00,-SN,SKC,0.02,WeatherDisplay:10.37,2013-02-10 17:31:00,
2013-02-10 18:36:00,29.3,26.7,29.83,NNE,22,0.9,1.6,90,0.00,-SN,SKC,0.02,WeatherDisplay:10.37,2013-02-10 17:36:00,
2013-02-10 18:41:00,29.3,26.7,29.83,NNE,22,1.8,2.3,90,0.00,-SN,SKC,0.02,WeatherDisplay:10.37,2013-02-10 17:41:00,
2013-02-10 18:46:00,29.3,26.7,29.83,NNE,22,0.0,0.0,90,0.00,-SN,SKC,0.02,WeatherDisplay:10.37,2013-02-10 17:46:00,
2013-02-10 18:51:00,29.3,26.7,29.83,NNE,22,1.3,1.3,90,0.00,-SN,SKC,0.02,WeatherDisplay:10.37,2013-02-10 17:51:00,
2013-02-10 18:56:00,29.3,26.7,29.83,NNE,22,0.0,0.0,90,0.00,-SN,SKC,0.02,WeatherDisplay:10.37,2013-02-10 17:56:00,
2013-02-10 19:01:00,29.3,26.7,29.83,NNE,22,0.0,1.1,90,0.00,-SN,SKC,0.02,WeatherDisplay:10.37,2013-02-10 18:01:00,
2013-02-10 19:06:00,29.3,26.7,29.83,NNE,22,1.8,2.3,90,0.00,-SN,SKC,0.02,WeatherDisplay:10.37,2013-02-10 18:06:00,
2013-02-10 19:11:00,29.1,26.6,29.83,NNE,22,0.0,1.1,90,0.00,-SN,SKC,0.02,WeatherDisplay:10.37,2013-02-10 18:11:00,
2013-02-10 19:16:00,29.1,26.6,29.83,NNE,22,0.0,0.0,90,0.00,-SN,SKC,0.02,WeatherDisplay:10.37,2013-02-10 18:16:00,
2013-02-10 19:21:00,29.1,26.6,29.83,NNE,22,1.2,3.5,90,0.00,-SN,SKC,0.02,WeatherDisplay:10.37,2013-02-10 18:21:00,
2013-02-10 19:26:00,29.1,26.6,29.84,NNE,22,0.0,0.0,90,0.00,-SN,SKC,0.02,WeatherDisplay:10.37,2013-02-10 18:26:00,
2013-02-10 19:31:00,29.1,26.6,29.83,NNE,22,0.6,1.1,90,0.00,-SN,SKC,0.02,WeatherDisplay:10.37,2013-02-10 18:31:00,
2013-02-10 19:36:00,29.1,26.6,29.84,NNE,22,0.0,0.0,90,0.00,-SN,SKC,0.02,WeatherDisplay:10.37,2013-02-10 18:36:00,
2013-02-10 19:41:00,28.9,26.4,29.84,NNE,22,2.0,3.0,90,0.00,-SN,SKC,0.02,WeatherDisplay:10.37,2013-02-10 18:41:00,
2013-02-10 19:46:00,28.9,26.4,29.84,NNE,22,0.0,0.0,90,0.00,-SN,SKC,0.02,WeatherDisplay:10.37,2013-02-10 18:46:00,
2013-02-10 19:51:00,28.9,26.4,29.83,NNE,22,0.0,0.0,90,0.00,-SN,SKC,0.02,WeatherDisplay:10.37,2013-02-10 18:51:00,
2013-02-10 19:56:00,28.9,26.4,29.83,NNE,22,1.0,1.0,90,0.00,-SN,SKC,0.02,WeatherDisplay:10.37,2013-02-10 18:56:00,
2013-02-10 20:01:00,28.9,26.4,29.84,NNE,22,0.0,0.0,90,0.00,-SN,SKC,0.02,WeatherDisplay:10.37,2013-02-10 19:01:00,
2013-02-10 20:06:00,28.8,26.2,29.84,NNE,22,0.0,0.0,90,0.00,-SN,SKC,0.02,WeatherDisplay:10.37,2013-02-10 19:06:00,
2013-02-10 20:11:00,28.8,26.2,29.84,NNE,22,0.0,0.0,90,0.00,-SN,SKC,0.02,WeatherDisplay:10.37,2013-02-10 19:11:00,
2013-02-10 20:16:00,28.8,26.2,29.84,NNE,22,0.7,1.1,90,0.00,-SN,SKC,0.02,WeatherDisplay:10.37,2013-02-10 19:16:00,
2013-02-10 20:21:00,28.8,26.2,29.84,NNE,22,1.4,4.6,90,0.00,-SN,SKC,0.02,WeatherDisplay:10.37,2013-02-10 19:21:00,
2013-02-10 20:26:00,28.6,26.0,29.84,NNE,22,0.0,0.0,90,0.00,-SN,SKC,0.02,WeatherDisplay:10.37,2013-02-10 19:26:00,
2013-02-10 20:31:00,28.6,26.0,29.85,NNE,22,0.8,1.1,90,0.00,-SN,SKC,0.02,WeatherDisplay:10.37,2013-02-10 19:31:00,
2013-02-10 20:36:00,28.6,26.0,29.84,NNE,22,0.0,0.0,90,0.00,-SN,SKC,0.02,WeatherDisplay:10.37,2013-02-10 19:36:00,
2013-02-10 20:41:00,28.6,26.0,29.85,NNE,22,0.0,0.0,90,0.00,-SN,SKC,0.02,WeatherDisplay:10.37,2013-02-10 19:41:00,
2013-02-10 20:46:00,28.6,26.0,29.85,NNE,22,0.0,0.0,90,0.00,-SN,SKC,0.02,WeatherDisplay:10.37,2013-02-10 19:46:00,
2013-02-10 20:51:00,28.6,26.0,29.85,NNE,22,0.0,0.0,90,0.00,-SN,SKC,0.02,WeatherDisplay:10.37,2013-02-10 19:51:00,
2013-02-10 20:56:00,28.6,26.0,29.85,NNE,22,0.0,0.0,90,0.00,-SN,SKC,0.02,WeatherDisplay:10.37,2013-02-10 19:56:00,
2013-02-10 21:01:00,28.6,26.0,29.85,NNE,22,0.0,0.0,90,0.00,-SN,SKC,0.02,WeatherDisplay:10.37,2013-02-10 20:01:00,
2013-02-10 21:07:00,28.6,26.0,29.85,NNE,22,0.0,0.0,90,0.00,-SN,SKC,0.02,WeatherDisplay:10.37,2013-02-10 20:07:00,
2013-02-10 21:12:00,28.2,25.7,29.85,NNE,22,0.0,0.0,90,0.00,-SN,SKC,0.02,WeatherDisplay:10.37,2013-02-10 20:12:00,
2013-02-10 21:17:00,28.2,25.7,29.85,NNE,22,0.0,0.0,90,0.00,-SN,SKC,0.02,WeatherDisplay:10.37,2013-02-10 20:17:00,
2013-02-10 21:22:00,28.2,25.7,29.85,NNE,22,0.0,0.0,90,0.00,-SN,SKC,0.02,WeatherDisplay:10.37,2013-02-10 20:22:00,
2013-02-10 21:27:00,28.2,25.7,29.85,NNE,22,0.0,0.0,90,0.00,-SN,SKC,0.02,WeatherDisplay:10.37,2013-02-10 20:27:00,
2013-02-10 21:32:00,28.2,25.7,29.85,NNE,22,0.0,0.0,90,0.00,-SN,SKC,0.02,WeatherDisplay:10.37,2013-02-10 20:32:00,
2013-02-10 21:37:00,28.0,25.5,29.85,NNE,22,0.1,0.0,90,0.00,-SN,SKC,0.02,WeatherDisplay:10.37,2013-02-10 20:37:00,
2013-02-10 21:42:00,28.0,25.5,29.85,NNE,22,0.9,1.1,90,0.00,-SN,SKC,0.02,WeatherDisplay:10.37,2013-02-10 20:42:00,
2013-02-10 21:47:00,28.0,25.5,29.85,NNE,22,0.0,0.0,90,0.00,-SN,SKC,0.02,WeatherDisplay:10.37,2013-02-10 20:47:00,
2013-02-10 21:52:00,28.0,25.5,29.85,NNE,22,0.0,0.0,90,0.00,-SN,SKC,0.02,WeatherDisplay:10.37,2013-02-10 20:52:00,
2013-02-10 21:57:00,28.0,25.5,29.85,NNE,22,0.0,0.0,90,0.00,-SN,SKC,0.02,WeatherDisplay:10.37,2013-02-10 20:57:00,
2013-02-10 22:02:00,28.0,25.5,29.85,NNE,22,0.0,0.0,90,0.00,-SN,SKC,0.02,WeatherDisplay:10.37,2013-02-10 21:02:00,
2013-02-10 22:07:00,28.0,25.5,29.85,NNE,22,0.0,0.0,90,0.00,-SN,SKC,0.02,WeatherDisplay:10.37,2013-02-10 21:07:00,
2013-02-10 22:12:00,27.7,25.1,29.85,NNE,22,0.0,0.0,90,0.00,-SN,SKC,0.02,WeatherDisplay:10.37,2013-02-10 21:12:00,
2013-02-10 22:17:00,27.7,25.1,29.85,NNE,22,0.0,0.0,90,0.00,-SN,SKC,0.02,WeatherDisplay:10.37,2013-02-10 21:17:00,
2013-02-10 22:22:00,27.5,25.0,29.86,NNE,22,0.0,0.0,90,0.00,-SN,SKC,0.02,WeatherDisplay:10.37,2013-02-10 21:22:00,
2013-02-10 22:27:00,27.1,24.6,29.86,NNE,22,0.0,0.0,90,0.00,-SN,SKC,0.02,WeatherDisplay:10.37,2013-02-10 21:27:00,
2013-02-10 22:32:00,27.1,24.6,29.86,NNE,22,0.0,0.0,90,0.00,-SN,SKC,0.02,WeatherDisplay:10.37,2013-02-10 21:32:00,
2013-02-10 22:37:00,26.8,24.2,29.85,NNE,22,0.0,0.0,90,0.00,-SN,SKC,0.02,WeatherDisplay:10.37,2013-02-10 21:37:00,
2013-02-10 22:42:00,26.8,24.2,29.86,NNE,22,0.0,0.0,90,0.00,-SN,SKC,0.02,WeatherDisplay:10.37,2013-02-10 21:42:00,
2013-02-10 22:47:00,26.6,24.1,29.86,NNE,22,0.0,0.0,90,0.00,-SN,SKC,0.02,WeatherDisplay:10.37,2013-02-10 21:47:00,
2013-02-10 22:52:00,26.6,24.1,29.86,NNE,22,0.0,0.0,90,0.00,-SN,SKC,0.02,WeatherDisplay:10.37,2013-02-10 21:52:00,
2013-02-10 22:57:00,26.6,24.1,29.86,NNE,22,0.0,0.0,90,0.00,-SN,SKC,0.02,WeatherDisplay:10.37,2013-02-10 21:57:00,
2013-02-10 23:02:00,26.6,24.1,29.86,NNE,22,0.0,0.0,90,0.00,-SN,SKC,0.02,WeatherDisplay:10.37,2013-02-10 22:02:00,
2013-02-10 23:07:00,26.8,24.2,29.86,NNE,22,0.2,2.3,90,0.00,-SN,SKC,0.02,WeatherDisplay:10.37,2013-02-10 22:07:00,
2013-02-10 23:12:00,27.0,24.4,29.87,NNE,22,0.0,0.0,90,0.00,-SN,SKC,0.02,WeatherDisplay:10.37,2013-02-10 22:12:00,
2013-02-10 23:17:00,27.0,24.4,29.87,NNE,22,0.0,0.0,90,0.00,-SN,SKC,0.02,WeatherDisplay:10.37,2013-02-10 22:17:00,
2013-02-10 23:22:00,27.1,24.6,29.87,NNE,22,0.0,0.0,90,0.00,-SN,SKC,0.02,WeatherDisplay:10.37,2013-02-10 22:22:00,
2013-02-10 23:27:00,27.1,24.6,29.87,NNE,22,0.0,0.0,90,0.00,-SN,SKC,0.02,WeatherDisplay:10.37,2013-02-10 22:27:00,
2013-02-10 23:32:00,27.1,24.6,29.87,NNE,22,0.0,0.0,90,0.00,-SN,SKC,0.02,WeatherDisplay:10.37,2013-02-10 22:32:00,
2013-02-10 23:37:00,27.3,24.8,29.87,NNE,22,0.0,0.0,90,0.00,-SN,SKC,0.02,WeatherDisplay:10.37,2013-02-10 22:37:00,
2013-02-10 23:42:00,27.5,25.0,29.88,NNE,22,0.0,0.0,90,0.00,-SN,SKC,0.02,WeatherDisplay:10.37,2013-02-10 22:42:00,
2013-02-10 23:47:00,27.5,25.0,29.88,NNE,22,0.0,1.1,90,0.00,-SN,SKC,0.02,WeatherDisplay:10.37,2013-02-10 22:47:00,
2013-02-10 23:52:00,27.5,25.0,29.87,NNE,22,0.0,0.0,90,0.00,-SN,SKC,0.02,WeatherDisplay:10.37,2013-02-10 22:52:00,
2013-02-10 23:57:00,27.5,25.0,29.88,NNE,22,0.0,0.0,90,0.00,-SN,SKC,0.02,WeatherDisplay:10.37,2013-02-10 22:57:00,